Showing default

QIANFAN-38, 62239

Orbit data source: Space-Track

QIANFAN-38, 62239 is a Chinese payload satellite in LEO that was launched on Thu, 05 Dec 2024 UTC via a CHANG ZHENG 6A launch vehicle from the Taiyaun Space Center, China (TSC). Payload-class satellites include a variety of spacecraft equipped with specific instruments for various scientific and technological missions. These include communications satellites like Starlink; space stations such as the ISS; scientific satellites like the Hubble; Earth observation satellites from companies like Planet Labs, Umbra, and HawkEye 360; GPS; miniature CubeSats for education and research; and military/defense satellites.

Loading next visibility...
Identifier
62239, 2024-232C
Orbit
LEO
Country
Flag of CNCN / PRC
Related business
Manufacturer
SECM
Mission
Operational Commercial Communications
Bus & Motor
QIANFAN, Unknown motor
Mass
267 kg wet, ~267 kg dry
Launch date (UTC)
2024-12-05 (1 year ago)
Launch vehicle
CHANG ZHENG 6A
Launch site
Taiyaun Space Center, China (TSC)
Object type
Payload
Rocket body
Debris
Shape & HBR
Box + 1 Pan, 5.0 m
Radar Cross Section
13.200 m², Large (>1 m²)

Expand to show TLE details & history
Last TLE update: 8 hours ago

TLE from 8 hours ago
0 QIANFAN-38
1 62239U 24232C   26035.12127835  .00000024  00000-0  18571-4 0  9992
2 62239  89.0010  35.8521 0015973  46.3976 313.8498 13.50996486106437
Epoch: 2026-02-04T02:54Z
TLE epoch observation values (Epoch: 2026-02-04T02:54:38.449Z)
Latitude
0.00002°
Longitude
-142.10051°
Altitude
1,063.316 km
Speed
7.324 km/s
True Right ascension
02h 23m 24s
True Declination
0° 00' 00"
Sunlit
Object was in daylight at epoch
Visualization orbit readout
Latitude
Unknown
Longitude
Unknown
Altitude
Unknown
Speed
Unknown
Apparent Right ascension
Unknown
Apparent Declination
Unknown
Sunlit
N/A
Visualization observer readout
Local Sidereal Time
12:25:09
Azimuth
Unknown
Elevation
Unknown
Doppler factor
Unknown
Orbital elements
Apogee altitude
1,077.535 km
Perigee altitude
1,053.756 km
Semi-major axis
7,443.783 km
Eccentricity
0.0016
Inclination
89.001°
RAAN
35.8521°
Arg. of periapsis
46.3976°
True anomaly
313.71762°
Mean anomaly
313.8498°
Eccentric anomaly
313.78373°
Mean motion
3.3795 °/min
Orbital period
106.52 mins
BSTAR
0.000018571
Loading maneuver chart data...
Computing Atmospheric mass density...
Loading historical data...
Loading historical data...
Loading historical data...
Loading historical data...
Loading historical data...
Loading historical data...
Loading historical data...

Documentation

Showing up to 5 results
|